Location: Bothwell
(42.3833°S, 147.0000°E)
Time: 01:00:40
(UTC+10:00)

CUTE 1.7 + AOD 2 - Visible Passes

Search period start: 05 October 2024 00:00
Search period end: 15 October 2024 01:00
Orbit: 564 x 576 km, 97.8° (Epoch: 03 October)

Date Brightness Start Highest point End Pass type
(mag) Time Alt. Az. Time Alt. Az. Time Alt. Az.
05 Oct ? 02:41:48 26° S 02:41:48 26° S 02:43:47 10° S visible
06 Oct ? 03:43:26 28° S 03:43:26 28° S 03:45:35 10° S visible
07 Oct ? 03:45:01 31° S 03:45:01 31° S 03:47:22 10° S visible
08 Oct ? 03:46:33 35° SSE 03:46:33 35° SSE 03:49:06 10° S visible
09 Oct ? 03:48:04 38° SSE 03:48:04 38° SSE 03:50:48 10° S visible
10 Oct ? 03:49:32 42° SSE 03:49:32 42° SSE 03:52:26 10° S visible
11 Oct ? 03:50:58 47° SSE 03:50:58 47° SSE 03:54:04 10° S visible
12 Oct ? 03:52:22 52° SSE 03:52:22 52° SSE 03:55:38 10° S visible
13 Oct ? 03:53:43 58° SSE 03:53:43 58° SSE 03:57:11 10° S visible
14 Oct ? 03:55:03 64° SSE 03:55:03 64° SSE 03:58:41 10° S visible
